Location: Aufkirchen
(47.9603°N, 11.3653°E)
Time: 12:00:01
(UTC+01:00)

Vanguard 2 Rocket - Visible Passes

Search period start: 30 November 2020 00:00
Search period end: 10 December 2020 00:00
Orbit: 553 x 3326 km, 32.9° (Epoch: 29 November)

Date Brightness Start Highest point End Pass type
(mag) Time Alt. Az. Time Alt. Az. Time Alt. Az.
30 Nov 11.3 04:19:47 10° SE 04:24:37 11° SE 04:29:33 10° ESE visible
30 Nov 11.0 06:22:59 10° SSW 06:38:42 31° SSE 06:53:39 10° E visible
01 Dec 11.0 05:24:05 10° S 05:37:40 25° SE 05:51:36 10° E visible
02 Dec 11.0 04:26:32 10° S 04:37:00 18° SE 04:48:11 10° E visible
02 Dec 10.8 06:34:50 10° SSW 06:51:33 38° SSE 07:07:48 10° E visible
03 Dec 11.1 03:32:40 10° SE 03:36:45 11° SE 03:40:59 10° ESE visible
03 Dec 10.8 05:35:20 10° SSW 05:50:19 32° SSE 06:06:10 10° E visible
04 Dec 10.8 04:36:46 10° S 04:49:27 25° SE 05:03:38 10° E visible
04 Dec 10.6 06:47:15 10° SW 07:04:30 44° SSE 07:21:37 10° E visible
05 Dec 10.8 03:39:34 10° SSE 03:49:01 18° SE 03:59:42 10° E visible
05 Dec 10.6 05:47:23 10° SSW 06:03:05 38° SSE 06:20:12 10° E visible
06 Dec 10.9 02:47:47 10° SE 02:49:01 10° SE 02:50:17 10° ESE visible
06 Dec 10.6 04:48:15 10° SSW 05:02:01 32° SE 05:18:04 10° E visible
06 Dec 10.5 07:00:05 10° SW 07:17:32 48° SSE 07:35:15 10° ESE visible
07 Dec 10.6 03:50:01 10° S 04:01:23 24° SE 04:15:05 10° E visible
07 Dec 10.4 05:59:57 10° SW 06:15:58 44° SSE 06:33:56 10° E visible
08 Dec 10.6 02:53:15 10° SSE 03:01:15 16° SE 03:10:40 10° E visible
08 Dec 10.4 05:00:28 10° SSW 05:14:43 38° SSE 05:32:01 10° E visible
08 Dec 10.4 07:13:12 10° WSW 07:30:39 50° S 07:48:43 10° ESE visible
09 Dec 10.3 04:02:13 11° SSW 04:13:54 30° SE 04:29:28 10° E visible
09 Dec 10.3 06:12:55 10° SW 06:28:58 47° SSE 06:47:28 10° ESE visible
